Torna al catalogo

FENGYUN 1C DEB

AttivoSSO
NORAD 31716·DEBRIS·🇨🇳 China

Lanciato May 10, 1999 da Taiyuan Satellite Launch Center

Loading…

Prossimi Passaggi (prossime 24 ore)

TLE

AggiornatoSource: Space-Track

Epoca: Sep 14, 2026, 15:52 UTC

1 31716U 99025CDP 26257.66171422  .00001256  00000-0  74983-3 0  9992
2 31716  98.5390 145.5258 0130970  34.0651 355.7660 14.04699227979925

Traccia FENGYUN 1C DEB in tempo reale con AllMySat

Download on the App Store